Retour au catalogue

SL-6 R/B(2)

ActifHEO
NORAD 21199·ROCKET BODY·🇷🇺 Russia

Lancé Mar 22, 1991 depuis Plesetsk Cosmodrome

Loading…

Prochains Passages (prochaines 24 heures)

TLE

FraisSource: Space-Track

Époque: Sep 11, 2026, 15:28 UTC

1 21199U 91022D   26254.64455233 -.00000676  00000-0  00000-0 0  9997
2 21199  64.4459 134.8828 6705978 250.9123  29.4633  2.05837333266379

Suivez SL-6 R/B(2) en temps réel avec AllMySat

Download on the App Store